APRIZESAT 2

Satellite information

Favourite Embed

Satellite Type and Status

PAYLOADIN ORBIT

Key statistics

Satellite APRIZESAT 2 at a glance.

Uptime

7837

Days in orbit

Revolutions

≈ 14.4

Per day

Orbit

SSO

Sun Synchronous Orbit

Inclination

98.1

Latest

Satellite identification and parameters

Extended collection of information and parameters for APRIZESAT 2.

Object identification

Identified? True

Debris? False

Object name: APRIZESAT 2

International designator: 2004-025A

Object number (NORAD): 28366

Object ID (CCSDS): 28366

Country: UNITED STATES OF AMERICA (US)

Current information (Y/N): Y

RCS size: SMALL

Orbital parameters

Period: 100.144 minutes

Inclination: 98.0816 deg

SMA: 7143.487 km

Apoapsis: 841.772 km

Periapsis: 688.931 km

RAAN: 157.8089 deg

Eccentricy: 0.01069791

Argument of periapsis: 95.093 deg

Mean anomaly: 266.2479 deg

Mean motion: 14.37928828 rev/day

Mean motion (dot): 0.00000374 rev/day2

B* drag term: 0.00012865192 1/REarth

Two-line elements (TLE)

Creation date: Dec. 12, 2025, 10:14 a.m.

Reference frame: TEME

Reference center: EARTH

Epoch: Dec. 12, 2025, 12:56 a.m. UTC

TLE line 0: 0 APRIZESAT 2

TLE line 1: 1 28366U 04025A 25346.03952105 .00000374 00000-0 12865-3 0 9990

TLE line 2: 2 28366 98.0816 157.8089 0106979 95.0930 266.2479 14.37928828124741

Live tracking on map

Real-time ground track for satellite APRIZESAT 2.

In-orbit conjunctions

There are no conjunctions computed for APRIZESAT 2, at the moment. Check back to stay up to date, as we update our databases every day.

Go to all conjunctions

Associated space launch

AprizeSat, is a constellation of small Low-Earth-Orbit satellites (64 satellites planned) to achieve a global communication system of data transmission and fixed and mobile asset tracking and monitoring (GMPCS).

APRIZESAT 2 was lifted into orbit during the mission ‘Dnepr | Aprizesat-2’, on board a Dnepr space rocket.

The launch took place on June 29, 2004, 6:30 a.m. from 109/95.

For more information about the launch, click the button.

Launch to space Dnepr | Aprizesat-2
Dnepr | Aprizesat-2

Agency: N/A

Status: Launch Successful

Launch date: June 29, 2004, 6:30 a.m. UTC

Rocket: Dnepr

Launch pad: 109/95

Location: Baikonur Cosmodrome, Republic of Kazakhstan

...

Latest news about this satellite

There are no fresh news available about this satellite. Check back as we update our databases every day.


Newsletter sign-up

Weekly statistics, charts and insights to help you stay on top of the space industry.